Flag for USA

Past Weather in South Washington Street Historic District, Georgia, USA — Yesterday and Last 2 Weeks

Now
52 °F

Light rain. Overcast.


Feels Like: 51 °F
Forecast: 54 / 50 °F
Wind: 5 mph from East

Location: Clemson-Oconee County Airport

Current Time: Oct 19, 2019 at 11:31:25 am

Latest Report: Oct 19, 2019 at 10:54 am


Visibility: 7 mi

Pressure: 30.06 "Hg

Humidity: 83%

Dew Point: 47 °F

Location of South Washington Street Historic DistrictLocation

Past Weather in South Washington Street Historic District — Graph

°F

South Washington Street Historic District Temperature Yesterday

Maximum temperature yesterday: 65 °F (at 1:54 pm)
Minimum temperature yesterday: 43 °F (at 4:26 am)
Average temperature yesterday: 54 °F

High & Low Weather Summary for the Past Weeks

 TemperatureHumidityPressure
High95 °F (Oct 4, 3:54 pm)100% (Oct 14, 6:11 am)30.29 "Hg (Oct 14, 6:11 am)
Low43 °F (Oct 18, 4:26 am)25% (Oct 16, 5:54 pm)29.71 "Hg (Oct 16, 2:54 pm)
Average65 °F74%30.06 "Hg
* Reported Oct 4 9:54 am — Oct 19 9:54 am, South Washington Street Historic District. Weather by CustomWeather, © 2019

Note: Actual official high and low records may vary slightly from our data, if they occured in-between our weather recording intervals... More about our weather records

Advertising

South Washington Street Historic District Weather History for the Previous 24 Hours

Scroll right to see more
 ConditionsComfort  
Time TempWeatherWind HumidityBarometerVisibility
9:54 am
Sat, Oct 19
54 °FLight rain. Overcast.9 mph69%30.06 "Hg10 mi
8:54 am53 °FOvercast.7 mph72%30.04 "Hg10 mi
7:54 am52 °FBroken clouds.6 mph77%30.02 "Hg10 mi
6:54 am51 °FPassing clouds.5 mph80%30.02 "Hg10 mi
5:54 am51 °FClear.3 mph80%30.01 "Hg10 mi
4:54 am50 °FClear.No wind83%30.01 "Hg10 mi
3:54 am50 °FClear.3 mph80%30.02 "Hg10 mi
2:54 am51 °FClear.No wind80%30.03 "Hg10 mi
1:54 am51 °FClear.No wind80%30.03 "Hg10 mi
12:54 am51 °FClear.No wind80%30.03 "Hg10 mi
11:54 pm
Fri, Oct 18
52 °FClear.3 mph80%30.03 "Hg10 mi
10:54 pm54 °FClear.No wind77%30.01 "Hg10 mi
9:54 pm54 °FClear.No wind86%30.01 "Hg10 mi
8:54 pm57 °FClear.No wind74%30.01 "Hg10 mi
7:54 pm58 °FClear.No wind58%30.01 "Hg10 mi
6:54 pm60 °FClear.3 mph49%30.01 "Hg10 mi
5:54 pm63 °FSunny.No wind47%30.00 "Hg10 mi
4:54 pm65 °FSunny.No wind39%30.00 "Hg10 mi
3:54 pm65 °FSunny.No wind39%29.99 "Hg10 mi
2:54 pm65 °FSunny.No wind39%30.00 "Hg10 mi
1:54 pm65 °FSunny.No wind39%30.03 "Hg10 mi
12:54 pm62 °FSunny.No wind41%30.05 "Hg10 mi
11:54 am61 °FSunny.3 mph44%30.07 "Hg10 mi
Weather by CustomWeather, © 2019

See weather overview